Simultaneous Nadir Overpasses (SNOs) Predictions

Prediction of SNOs between GOES-14 and AQUA Satellite Orbit:

Table of predicted SNOs for the next 14.0 days since TLE Epoch: 3/21/2020
Index Date Time (GOES-14) GOES-14 Lat,Lon AQUA Lat,Lon Distance(km) Time Diff (sec)
1 03/22/2020 08:33:19 0.12,-104.15 0.23,-104.68 59.11 80
2 03/24/2020 08:23:48 0.12,-104.16 -0.39,-101.72 277.37 80
3 03/24/2020 20:45:12 -0.12,-104.08 -0.70,-106.91 321.53 80
4 03/26/2020 20:30:21 -0.12,-104.08 -0.07,-103.95 14.93 80
5 03/28/2020 20:18:10 -0.13,-104.08 0.56,-101.00 350.80 80
6 03/29/2020 08:39:25 0.12,-104.15 0.55,-106.16 227.99 80
7 03/31/2020 08:29:54 0.13,-104.15 -0.08,-103.20 108.12 80
8 03/31/2020 20:51:17 -0.13,-104.09 -1.06,-108.38 488.09 80
9 04/02/2020 08:17:44 0.14,-104.15 -0.72,-100.25 444.11 80
10 04/02/2020 20:39:06 -0.13,-104.09 -0.43,-105.43 152.54 80




NCC Satellite Simultaneous Nadir Overpasses (SNOs) Prediction Service
